{"data":{"norad_id":60100,"intl_designator":"2024-117K","name":"STARLINK-31996","alt_names":[],"object_type":"PAYLOAD","status":"ACTIVE","operator":null,"country":"US","launch_date":"2024-06-23","launch_site_code":"AFETR","launch_vehicle":null,"mission":null,"orbit_class":"UNKNOWN","rcs_meters":null,"size_class":null,"mass_kg":null,"dimensions":null,"purposes":["comms"],"wikipedia_slug":null,"has_3d_model":false,"image_url":null,"decayed_at":null,"tle_current":{"epoch":"2026-05-25T03:12:24.503616Z","epoch_age_seconds":59507,"freshness":"FRESH","line1":"1 60100U 24117K   26145.13361694  .00000701  00000+0  35792-4 0  9990","line2":"2 60100  53.1607  41.8172 0001168  87.0362 273.0773 15.30198877108597","mean_motion":15.30198877,"eccentricity":0.0001168,"inclination_deg":53.1607,"raan_deg":41.8172,"arg_perigee_deg":87.0362,"mean_anomaly_deg":273.0773,"bstar":3.5792e-5,"rev_number":10859,"period_min":94.10541476956,"perigee_km":474.4179505836,"apogee_km":476.0188944103,"semimajor_km":6853.355422497,"source":"CELESTRAK","updated_at":"2026-05-25T13:38:19.161825Z"}}}